www.pogodaiklimat.ru

Погода и климат >> Архив погоды >> Малайзия >> Куантане


ПОГОДА в Куантане

  • Прогноз погоды в Куантане
  • Монитор погоды в Куантане

АРХИВ ПОГОДЫ в Куантане

Время (UTC), дата Ветер
(напр.,м/с)
 
Видим.   Явления Облачность Т
(С)
Тd
(С)
f
(%)
Тe
(С)
Тes
(С)
Комфортность P
(гПа)
Po
(гПа)
Тmin
(С)
Tmax
(С)
R
(мм)
R24
(мм)
S
(см)
12 17.06 ЮЗ 2 8000 м гроза без осадков 9/5 500 м
[Cb cap Ac lent Cs]
+25.7 +24.4 93 +36 +36 очень
душно
1010.0 1008.2 +33.3 6
15 17.06 штиль 0 8000 м в посл. час дождь 9/4 720 м
[Sc Ac lent Cs]
+26.0 +25.1 95 +37 +37 очень
душно
1011.6 1009.8
18 17.06 СЗ 2 4000 м гроза, ливневой дождь 9/4 90 м
[Cb cap Ac lent Cs]
+25.6 +24.7 95 +36 +36 очень
душно
1011.4 1009.6 14
21 17.06 штиль 0 9000 м слаб. ливневой дождь, в посл. час гроза 9/3 240 м
[Sc Ac trans Cs]
+24.4 +23.6 95 +33 +33 очень
душно
1009.5 1007.7
00 18.06 СЗ 1 7000 м дымка 9/3 60 м
[St Ac trans Ci sp]
+24.8 +24.3 97 +34 +35 очень
душно
1010.0 1008.2 +23.9 25
03 18.06 Ю 2 14 км мгла 9/3 600 м
[Cu med, cong Ac trans Ci sp]
+29.8 +26.5 83 +46 +52 опасность
перегрева
1010.8 1009.0
06 18.06 Ю 2 16 км мгла 9/4 570 м
[Cu med, cong Ac trans Ci sp]
+31.3 +25.6 72 +46 +53 опасность
перегрева
1009.7 1007.9
09 18.06 Ю 2 14 км осадки на расстоянии 9/3 500 м
[Cb cap Ac trans Ci sp]
+30.8 +26.0 76 +46 +49 опасность
перегрева
1008.0 1006.2
12 18.06 Ю 1 10 км мгла 9/3 720 м
[Sc Ac trans Ci sp]
+28.3 +25.9 87 +42 +42 опасность
перегрева
1008.8 1007.0 +31.6
15 18.06 штиль 0 10 км зарница 9/3 500 м
[Cb cap Ac trans Ci sp]
+27.0 +25.6 92 +40 +40 очень
душно
1010.4 1008.6
18 18.06 С 2 10 км мгла 9/4 720 м
[Sc Ac trans Ci sp]
+26.1 +24.3 90 +36 +36 очень
душно
1009.9 1008.1
21 18.06 С 1 12 км мгла 9/4 720 м
[Sc diur, vesp Ac trans Ci sp]
+24.7 +23.4 92 +33 +33 очень
душно
1008.8 1007.0
00 19.06 штиль 0 7000 м мгла 9/3 1000 м
[Sc Ac trans Ci sp]
+25.3 +24.0 93 +35 +36 очень
душно
1010.7 1008.9 +24.6
03 19.06 Ю 2 10 км мгла 9/3 240 м
[Cu med, cong Ac trans Ci sp]
+29.4 +25.9 81 +44 +50 опасность
перегрева
1010.4 1008.6
06 19.06 Ю 2 12 км мгла 9/5 570 м
[Cu med, cong Ac trans Ci sp]
+31.0 +26.5 77 +47 +53 опасность
перегрева
1008.9 1007.1
09 19.06 Ю 2 12 км мгла 9/4 500 м
[Cb cap Ac trans Ci sp]
+29.9 +25.9 79 +45 +47 опасность
перегрева
1007.3 1005.5
12 19.06 штиль 0 9000 м в посл. час дождь 9/4 720 м
[Sc Ac trans Ci sp]
+27.6 +25.6 89 +41 +41 опасность
перегрева
1008.1 1006.3 +31.0 0.0
15 19.06 штиль 0 9000 м мгла 9/4 210 м
[Sc Ac trans Ci sp]
+26.6 +25.3 93 +39 +39 очень
душно
1009.5 1007.7
18 19.06 штиль 0 9000 м мгла 9/4 720 м
[Sc Ac trans Ci sp]
+26.3 +25.4 95 +38 +38 очень
душно
1009.2 1007.4
21 19.06 штиль 0 9000 м мгла 9/3 720 м
[Sc Ac trans Ci sp]
+25.9 +24.9 94 +37 +37 очень
душно
1008.6 1006.8
00 20.06 штиль 0 14 км мгла 9/1 1000 м
[Cu hum Ac trans Ci sp]
+26.2 +25.0 93 +37 +38 очень
душно
1010.2 1008.4 +25.3 0.0
03 20.06 ЮЗ 4 15 км мгла 8/4 570 м
[Cu med, cong Ac trans Ci sp]
+30.7 +25.9 76 +46 +50 опасность
перегрева
1011.0 1009.2
06 20.06 ЮЗ 3 16 км мгла 8/4 570 м
[Cu med, cong Ac trans Ci sp]
+32.8 +26.4 69 +49 +55 опасность
перегрева
1008.3 1006.5
09 20.06 ЮВ 2 15 км мгла 9/4 500 м
[Cb cap Ac trans Ci sp]
+32.9 +26.9 71 +51 +53 опасность
перегрева
1006.5 1004.8
12 20.06 С 1 4000 м гроза, ливневой дождь 9/5 480 м
[Cb cap Ac trans Cs]
+24.5 +24.0 97 +34 +34 очень
душно
1007.9 1006.1 +34.2 32
15 20.06 ЮЗ 3 4000 м гроза, ливневой дождь 10/5 180 м
[Cb cap Ac trans Cs]
+24.4 +23.6 95 +33 +33 очень
душно
1010.9 1009.1
18 20.06 штиль 0 8000 м в посл. час дождь 10/4 180 м
[Sc Ac trans Cs]
+24.3 +23.8 97 +33 +33 очень
душно
1009.1 1007.3 1
21 20.06 штиль 0 12 км дымка 9/3 240 м
[Sc Ac trans Ci sp]
+23.8 +23.1 96 +32 +32 очень
душно
1007.8 1006.0
00 21.06 штиль 0 8000 м дымка 9/4 120 м
[Sc Ac trans Ci sp]
+23.9 +23.4 97 +32 +33 очень
душно
1009.7 1007.9 +23.4 33
03 21.06 ЮЗ 2 15 км мгла 9/3 660 м
[Cu med, cong Ac trans Ci sp]
+29.3 +25.7 81 +43 +50 опасность
перегрева
1009.9 1008.1
06 21.06 Ю 3 20 км мгла 9/5 600 м
[Cu med, cong Ac trans Ci sp]
+33.2 +26.4 68 +50 +55 опасность
перегрева
1007.3 1005.6
09 21.06 Ю 2 17 км осадки на расстоянии 9/5 500 м
[Cb cap Ac trans Ci sp]
+32.6 +26.5 70 +49 +51 опасность
перегрева
1005.7 1004.0
12 21.06 В 2 4000 м гроза, ливневой дождь 10/5 480 м
[Cb cap Ac trans Cs]
+25.0 +24.1 95 +34 +34 очень
душно
1008.2 1006.4 +26.9 3
15 21.06 Ю 1 7000 м гроза, ливневой дождь 10/5 480 м
[Cb cap Ac trans Cs]
+25.0 +24.2 95 +34 +34 очень
душно
1009.7 1007.9
18 21.06 ЮЗ 2 6000 м гроза, ливневой дождь 10/5 500 м
[Cb cap Ac lent Cs]
+24.7 +24.0 96 +34 +34 очень
душно
1008.0 1006.2 3
21 21.06 штиль 0 12 км в посл. час дождь 9/4 300 м
[Sc Ac trans Cs]
+24.7 +24.0 96 +34 +34 очень
душно
1007.2 1005.4
00 22.06 Ю 2 12 км мгла 9/3 1000 м
[Cu hum Ac trans Ci sp]
+25.3 +24.4 95 +35 +36 очень
душно
1008.2 1006.4 +23.9 6
03 22.06 Ю 2 14 км мгла 9/3 570 м
[Cu hum Ac trans Ci sp]
+29.2 +25.9 82 +44 +49 опасность
перегрева
1008.7 1006.9
06 22.06 Ю 3 14 км мгла 9/3 570 м
[Cu med, cong Ac trans Ci sp]
+30.6 +26.7 80 +48 +54 опасность
перегрева
1006.5 1004.8
09 22.06 Ю 2 13 км мгла 9/3 570 м
[Cu med, cong Ac trans Ci sp]
+30.2 +26.3 80 +46 +48 опасность
перегрева
1005.5 1003.8
12 22.06 Ю 2 12 км зарница 9/4 500 м
[Cb cap Ac trans Cs]
+27.8 +25.6 88 +41 +41 опасность
перегрева
1006.8 1005.0 +31.0
15 22.06 Ю 2 12 км зарница 9/4 500 м
[Cb cap Ac trans Ci sp]
+26.5 +24.7 90 +38 +38 очень
душно
1008.5 1006.7
18 22.06 СЗ 2 12 км зарница 9/4 500 м
[Cb cap Ac trans Cs]
+24.2 +22.6 91 +32 +32 очень
душно
1009.1 1007.3
21 22.06 штиль 0 9000 м в посл. час дождь 9/4 240 м
[Sc Ac trans Ci sp]
+23.6 +22.5 94 +31 +31 очень
душно
1007.4 1005.6
00 23.06 штиль 0 10 км дымка 9/3 1500 м
[Sc diur, vesp Ac trans Cs]
+23.9 +23.2 96 +32 +33 очень
душно
1008.2 1006.4 +23.2 0.8
03 23.06 Ю 3 15 км мгла 9/1 600 м
[Cu hum Ac trans Ci sp]
+29.4 +25.9 81 +44 +50 опасность
перегрева
1008.5 1006.7
06 23.06 Ю 3 20 км мгла 9/4 570 м
[Cu med, cong Ac trans Ci sp]
+32.0 +26.1 71 +48 +54 опасность
перегрева
1006.5 1004.7
09 23.06 ЮВ 3 18 км гроза без осадков 9/4 500 м
[Cb cap Ac trans Ci sp]
+29.1 +25.8 82 +43 +45 опасность
перегрева
1005.7 1003.9
12 23.06 ЮЗ 3 3000 м гроза, ливневой дождь 10/5 480 м
[Cb cap Ac trans Cs]
+24.2 +23.5 96 +33 +33 очень
душно
1007.5 1005.7 +33.0 16
15 23.06 штиль 0 8000 м в посл. час дождь 9/4 240 м
[Sc Ac trans Ci sp]
+24.3 +23.9 98 +33 +33 очень
душно
1009.1 1007.3
18 23.06 штиль 0 8000 м дымка 9/4 240 м
[Sc Ac trans Ci sp]
+24.3 +23.5 95 +33 +33 очень
душно
1009.3 1007.5 0.0
21 23.06 штиль 0 7000 м дымка 9/4 150 м
[St Ac trans Ci sp]
+24.0 +23.5 97 +32 +32 очень
душно
1008.7 1006.9
00 24.06 штиль 0 9000 м дымка 9/3 300 м
[Cu hum Ac trans Ci sp]
+24.4 +23.7 96 +33 +34 очень
душно
1009.8 1008.0 +23.8 8
03 24.06 Ю 2 15 км мгла 9/3 570 м
[Cu med, cong Ac trans Ci sp]
+29.7 +26.2 82 +45 +51 опасность
перегрева
1011.0 1009.2
06 24.06 Ю 3 18 км мгла 9/5 500 м
[Cb cap Ac trans Ci sp]
+32.2 +26.2 71 +48 +53 опасность
перегрева
1008.6 1006.8

 

Местоположение метеостанции Куантане (Малайзия): широта 3.78 долгота 103.21 высота над уровнем моря 16 м.

В архиве по умолчанию представлена погода в Куантане за последнюю неделю. Архивные данные за месяц целиком и за предыдущие месяцы, начиная с января 2011 года, Вы можете получить, выбрав интересующий диапазон дат из раскрывающегося списка и нажав кнопку "Ввод!".


*Определитесь, кто Вы:
робот инопланетянин человек

Внимание! Время в таблицах - всемирное. Для получения местного времени необходимо прибавить поправку, которая равна 7 ч.

Смотрите также архив погоды в соседних городах и на ближайших метеорологических станциях:

Погода в Куала-Тренггану (Малайзия) (178 км)
Погода в Мерсинге (Малайзия) (198 км)
Погода в Куала-Лумпуре (Малайзия) (198 км)
Погода в Малакке (Малайзия) (199 км)
Погода в Куала-Лумпур аэропорту (Малайзия) (205 км)
Погода на Нагорье Кэмерон (Малайзия) (218 км)
Погода в Аэропорту Сеная (Малайзия) (245 км)
Погода в Ипохе (Малайзия) (250 км)
Погода в Сингапуре (Сингапур) (281 км)
Погода в Ситаване (Малайзия) (283 км)

Пояснения к столбцам:

Ветер - указаны скорость ветра в м/с - средняя за 10 мин, порывы в срок и между сроками (в фигурных скобках) и направление, откуда дует ветер: С - северный, СВ - северо-восточный, В - восточный, ЮВ - юго-восточный, Ю - южный, ЮЗ - юго-западный, З - западный, СЗ - северо-западный.
Видимость - горизонтальная дальность видимости в метрах или километрах. При видимости от 1 до 10 км при отсутствии осадков обычно наблюдается дымка, при ухудшении видимости до 1 км и менее - туман. В сухую погоду видимость может ухудшаться дымом, пылью или мглою.
Явления - указаны атмосферные явления, наблюдавшиеся в срок или в последний час перед сроком; фигурными скобками обозначены явления, наблюдавшиеся между сроками (за 1-3 часа до срока); квадратными скобками обозначены град или гололедные отложения с указанием их диаметра в мм.
Облачность - указаны через наклонную черту общая и нижняя облачность в баллах и высота нижней границы облаков в метрах; квадратными скобками обозначены формы облаков: Ci - перистые, Cs - перисто-слоистые, Cc - перисто-кучевые, Ac - высококучевые, As - высокослоистые, Sc - слоисто-кучевые, Ns - слоисто-дождевые, Cu - кучевые, Cb - кучево-дождевые. Подробнее классификацию облаков см. в Атласе облаков (PDF).
T - Температура воздуха - температура, измеренная на высоте 2 м над землей.
Td - Температура точки росы - температура, при понижении до которой содержащийся в воздухе водяной пар достигнет насыщения.
f - Относительная влажность воздуха - влажноcть воздуха, измеренная на высоте 2 м над землей.
Te - Эффективная температура - температура, которую ощущает одетый по сезону человек в тени. Характеристика душности погоды. При расчете учитывается влияние влажности воздуха и скорости ветра на теплоощущения человека.
Tes - Эффективная температура на солнце - температура, которую ощущает человек, с поправкой на солнечный нагрев. Характеристика знойности погоды. Зависит от высоты солнца над горизонтом, облачности и скорости ветра. Ночью, в пасмурную погоду, а также при ветре 12 м/с и более поправка равна нулю.
P - Атмосферное давление - приведенное к уровню моря атмосферное давление.
Po - Атмосферное давление - измеренное на уровне метеостанции атмосферное давление.
Tmin - Минимальная температура - минимум температуры воздуха на высоте 2 м над землей.
Tmax - Максимальная температура - максимум температуры воздуха на высоте 2 м над землей.
R - Количество осадков - Количество выпавших осадков за период времени, мм. При наведении курсора мыши на число - период времени, за который выпало указанное количество осадков.
R24 - Количество осадков - Количество выпавших осадков за 24 часа, мм.
S - Снежный покров - Высота снежного покрова, см. При наведении курсора мыши на число - состояние снежного покрова и степень покрытия местности в баллах.